Tracking 18980 objects as of 18-Feb-2018
HD Live streaming from Space Station
objects crossing your sky now

IRIDIUM 40

Track IRIDIUM 40 now!
10-day predictions
IRIDIUM 40 is classified as:


NORAD ID: 25041
Int'l Code: 1997-069C
Perigee: 276.4 km
Apogee: 533.4 km
Inclination: 86.4 °
Period: 92.5 minutes
Semi major axis: 6775 km
RCS: 3.773 m2 (large)
Launch date: November 9, 1997
Source: United States (US)
Launch site: AIR FORCE WESTERN TEST RANGE (AFWTR)
aabbcc
Your satellite tracking list
Your tracking list is empty




NASA's NSSDC Master Catalog

Two Line Element Set (TLE):
1 25041U 97069C   18048.82580126  .00068011 -19394-6  40965-3 0  9992
2 25041  86.3741 255.2412 0189577  49.9124 311.8584 15.56510794 64823
Source of the keplerian elements: AFSPC